Location: Abraham Lincoln Continuation High School
(33.9711°N, 117.3662°W)
Time: 06:26:11
(UTC+00:00)

Lacrosse 5 - Pass Details

Date: 18 January 2021
Orbit: 715 x 724 km, 57.0° (Epoch: 01 March)

Event Time Altitude Azimuth Distance (km) Brightness Sun altitude
Rises 02:49:20 0° 333° (NNW) 3,119 5.4 -21.2°
Reaches altitude 10° 02:52:30 10° 354° (N) 2,197 4.3 -21.9°
Enters shadow 02:53:47 14° 7° (N) 1,930 3.9 -22.1°
